Location: Unspecified
(48.2082°N, 0.0000°E)
Time: 23:53:49
(UTC+00:00)

Tiros 1 despin weight - Pass Details

Date: 28 June 2019
Orbit: 594 x 642 km, 48.2° (Epoch: 20 July)

Event Time Altitude Azimuth Distance (km) Brightness Sun altitude
Rises 03:04:26 0° 282° (WNW) 2,836 ? -7.8°
Reaches altitude 10° 03:07:09 10° 266° (W) 1,928 ? -7.5°
Maximum altitude 03:10:27 21° 218° (SW) 1,354 ? -7.1°
Drops below altitude 10° 03:13:44 10° 169° (S) 1,919 ? -6.8°
Sets 03:16:27 0° 153° (SSE) 2,819 ? -6.4°
